CZ-6A DEB, 61498

Orbit data source: Space-Track

CZ-6A DEB, 61498 is space debris in LEO originally from a launch on Tue, 06 Aug 2024 UTC launched from the Taiyaun Space Center, China (TSC). Debris objects in space refer to the collection of defunct objects orbiting the Earth. Examples of debris include non-operational satellites, rocket bodies, and fragments generated from explosions, collisions, or faulty payload assembly.

Not visible in the next 10 days
Identifier
61498, 2024-140ABG
Orbit
LEO
Country
Flag of CNCN / PRC
Related business
Manufacturer
SAST
Mission
Spacecraft
Bus & Motor
Unknown
Mass
Unknown
Launch date (UTC)
2024-08-06 (2 years ago)
Launch vehicle
Unknown
Launch site
Taiyaun Space Center, China (TSC)
Object type
Payload
Rocket body
Debris
Shape & HBR
Unknown shape, 0.1 m
Radar Cross Section
Medium (>0.1 m² and <1 m²)

Expand to show TLE details & history
Last TLE update: 13 hours ago

TLE from 13 hours ago
0 CZ-6A DEB
1 61498U 24140ABG 26171.31835669  .01460413  00000-0  86543-2 0  9994
2 61498  89.1823 284.8730 0014705 321.8084  38.2148 15.75141315 95818
Epoch: 2026-06-20T07:38Z
TLE epoch observation values (Epoch: 2026-06-20T07:38:26.018Z)
Latitude
-0.00001°
Longitude
-98.27011°
Altitude
339.738 km
Speed
7.709 km/s
True Right ascension
18h 59m 29s
True Declination
0° 00' 00"
Sunlit
Object was in full shadow at epoch
Visualization orbit readout
Latitude
Unknown
Longitude
Unknown
Altitude
Unknown
Speed
Unknown
Apparent Right ascension
Unknown
Apparent Declination
Unknown
Sunlit
N/A
Visualization observer readout
Local Sidereal Time
07:21:32
Azimuth
Unknown
Elevation
Unknown
Doppler factor
Unknown
Orbital elements
Apogee altitude
350.841 km
Perigee altitude
331.08 km
Semi-major axis
6,719.098 km
Eccentricity
0.00147
Inclination
89.1823°
RAAN
284.873°
Arg. of periapsis
321.8084°
True anomaly
38.31919°
Mean anomaly
38.2148°
Eccentric anomaly
38.26698°
Mean motion
3.94073 °/min
Orbital period
91.35 mins
BSTAR
0.0086543
Loading maneuver chart data...
Computing Atmospheric mass density...
Loading historical data...
Loading historical data...
Loading historical data...
Loading historical data...
Loading historical data...
Loading historical data...
Loading historical data...

Documentation

Showing up to 5 results
|